GW7008 Weather Reports


Display with metric or nautical units.
time (UTC)temp
F
wind
direction
speed
MPH
gust
MPH
rain 1hr
in
rain 24hr
in
rain mn
in
humidity
%
barometer
mb
20260906101531 71 317 0.0 0.0 0.00 0.38 0.00 98 1013.4
20260906100033 71 278 0.0 0.0 0.00 0.38 0.00 98 1013.4
20260906094534 71 278 0.0 0.0 0.00 0.38 0.00 98 1013.2
20260906093032 71 278 0.0 0.0 0.00 0.38 0.00 98 1013.4
20260906091528 71 278 0.0 0.0 0.00 0.38 0.00 98 1013.3
20260906090005 71 278 0.0 0.0 0.00 0.38 0.00 98 1013.3
20260906084506 71 278 0.0 0.0 0.00 0.38 0.00 98 1013.3
20260906083007 71 278 0.0 0.0 0.00 0.38 0.00 98 1013.2
20260906081503 71 278 0.0 2.0 0.00 0.38 0.00 98 1013.4
20260906080004 71 278 0.0 0.0 0.00 0.38 0.00 98 1013.3
20260906074508 71 278 0.0 0.0 0.00 0.38 0.00 98 1013.3
20260906073016 71 278 0.0 0.0 0.00 0.38 0.00 98 1013.1
20260906071511 71 278 0.0 0.0 0.00 0.38 0.00 98 1013.4
20260906070004 71 278 0.0 0.0 0.00 0.38 0.00 98 1013.4
20260906064504 71 278 0.0 2.0 0.00 0.38 0.00 98 1013.4
20260906063012 71 278 0.0 2.0 0.00 0.38 0.00 98 1013.5
20260906061514 71 278 0.0 0.0 0.00 0.38 0.00 98 1013.5
20260906060013 72 278 0.0 0.0 0.00 0.38 0.00 97 1013.8
20260906054504 72 278 0.0 2.0 0.00 0.38 0.00 98 1014.0
20260906053009 72 278 0.0 0.0 0.00 0.38 0.00 98 1014.2
20260906051513 72 278 0.0 0.0 0.00 0.38 0.00 97 1014.2
20260906050017 72 278 0.0 2.0 0.00 0.38 0.00 98 1014.5
20260906044516 73 278 0.0 2.0 0.00 0.38 0.00 98 1014.6
20260906043008 72 257 0.0 2.0 0.00 0.38 0.00 98 1014.5
20260906041518 72 257 0.0 1.0 0.00 0.38 0.00 98 1014.3
20260906040018 72 257 0.0 0.0 0.00 0.38 0.00 97 1014.4
20260906034518 72 257 0.0 0.0 0.00 0.38 0.38 97 1014.2
20260906033023 73 257 0.0 0.0 0.00 0.38 0.38 97 1014.5
20260906031510 73 257 0.0 0.0 0.00 0.38 0.38 97 1014.5
20260906030016 73 257 0.0 2.0 0.00 0.38 0.38 97 1014.4
20260906024524 73 257 0.0 2.0 0.00 0.38 0.38 97 1014.5
20260906023025 73 257 0.0 2.0 0.00 0.38 0.38 97 1014.7
20260906021510 73 257 0.0 2.0 0.00 0.38 0.38 97 1014.9
20260906020014 73 257 0.0 2.0 0.00 0.38 0.38 97 1014.6
20260906014522 73 257 0.0 2.0 0.00 0.38 0.38 97 1014.6
20260906013029 73 257 0.0 2.0 0.00 0.38 0.38 97 1014.3
20260906011524 73 257 0.0 2.0 0.00 0.38 0.38 97 1014.2
20260906010010 73 257 0.0 2.0 0.00 0.38 0.38 97 1013.9
20260906004518 73 257 0.0 2.0 0.00 0.38 0.38 97 1013.7
20260906003021 73 257 0.0 0.0 0.00 0.38 0.38 97 1013.6
20260906001530 73 257 0.0 0.0 0.00 0.38 0.38 97 1013.1
20260906000008 73 257 0.0 2.0 0.00 0.38 0.38 96 1012.8
20260905234515 73 285 0.0 2.0 0.00 0.38 0.38 96 1012.9
20260905233010 73 266 0.0 2.0 0.00 0.38 0.38 97 1013.4
20260905232543 72 72 0.0 2.0 0.00 0.38 0.38 97 1013.2
20260905232536 72 73 0.0 2.0 0.00 0.38 0.38 96 1013.2
20260905232531 79 334 0.0 2.0 0.13 0.13 0.13 76 1014.1
20260905210005 90 127 1.0 2.0 0.00 0.00 0.00 55 1013.1
20260905204507 97 58 1.0 5.0 0.00 0.00 0.00 47 1012.2
20260905203016 97 220 1.0 3.0 0.00 0.00 0.00 44 1012.3
20260905201520 97 295 1.0 4.0 0.00 0.00 0.00 1012.4
20260905200025 96 238 0.0 2.0 0.00 0.00 0.00 45 1012.5
20260905194506 96 351 1.0 3.0 0.00 0.00 0.00 47 1012.7
20260905193010 96 328 0.0 3.0 0.00 0.00 0.00 49 1012.8
20260905191519 96 68 0.0 3.0 0.00 0.00 0.00 47 1013.0
20260905190026 96 50 1.0 3.0 0.00 0.00 0.00 48 1013.2
20260905184531 96 13 1.0 4.0 0.00 0.00 0.00 49 1013.3
20260905183009 96 258 1.0 3.0 0.00 0.00 0.00 48 1013.5
20260905181515 95 9 1.0 3.0 0.00 0.00 0.00 53 1013.7
20260905180020 95 66 0.0 3.0 0.00 0.00 0.00 52 1013.9
20260905174528 94 273 1.0 5.0 0.00 0.00 0.00 55 1014.1
20260905173030 93 229 0.0 2.0 0.00 0.00 0.00 58 1014.3
20260905171535 93 248 1.0 4.0 0.00 0.00 0.00 58 1014.6
20260905170019 92 266 1.0 3.0 0.00 0.00 0.00 58 1014.7
20260905164525 91 359 1.0 4.0 0.00 0.00 0.00 60 1014.9
20260905163029 90 216 0.0 3.0 0.00 0.00 0.00 61 1015.3
20260905161533 89 141 0.0 2.0 0.00 0.00 0.00 65 1015.4
20260905160025 88 333 1.0 3.0 0.00 0.00 0.00 66 1015.5
20260905154523 87 243 1.0 6.0 0.00 0.00 0.00 66 1015.6
20260905153031 86 29 0.0 3.0 0.00 0.00 0.00 69 1015.7
20260905151531 85 36 1.0 4.0 0.00 0.00 0.00 70 1015.8
20260905150036 84 79 0.0 2.0 0.00 0.00 0.00 72 1015.9
20260905144521 83 173 0.0 2.0 0.00 0.00 0.00 74 1015.9
20260905143025 83 32 1.0 3.0 0.00 0.00 0.00 75 1016.1
20260905141528 82 359 0.0 3.0 0.00 0.00 0.00 78 1016.1
20260905140034 81 1 1.0 2.0 0.00 0.00 0.00 78 1016.1
20260905134502 79 54 0.0 2.0 0.00 0.00 0.00 82 1016.1
20260905133004 78 297 0.0 2.0 0.00 0.00 0.00 86 1016.2
20260905131506 76 52 0.0 1.0 0.00 0.00 0.00 92 1016.4
20260905130008 75 212 0.0 2.0 0.00 0.00 0.00 96 1016.3
20260905124520 74 212 0.0 0.0 0.00 0.00 0.00 97 1016.3
20260905123003 74 212 0.0 0.0 0.00 0.00 0.00 97 1016.3
20260905121504 74 212 0.0 0.0 0.00 0.00 0.00 96 1016.2
20260905120016 74 212 0.0 0.0 0.00 0.00 0.00 96 1016.0
20260905114513 74 212 0.0 0.0 0.00 0.00 0.00 96 1015.8
20260905113017 74 212 0.0 0.0 0.00 0.00 0.00 96 1015.8
20260905111505 74 212 0.0 0.0 0.00 0.00 0.00 96 1015.5
20260905110005 74 212 0.0 0.0 0.00 0.00 0.00 96 1015.5
20260905104511 74 212 0.0 0.0 0.00 0.00 0.00 96 1015.4
20260905103022 74 212 0.0 0.0 0.00 0.00 0.00 96 1015.3